Tracking 28126 objects as of 2-Oct-2023
HD Live streaming from Space Station
objects crossing your sky now

SL-8 DEB

Track SL-8 DEB now!
10-day predictions


NORAD ID: 21161
Int'l Code: 1991-009Y
Perigee: 1,496.6 km
Apogee: 1,707.7 km
Inclination: 74.1 °
Period: 118.1 minutes
Semi major axis: 7973 km
RCS: 0.2642 m2 (medium)
Launch date: February 12, 1991
Source: Commonwealth of Independent States (former USSR) (CIS)
Launch site: PLESETSK MISSILE AND SPACE COMPLEX (PKMTR)

Note: This is SATELLITE DEBRIS
Your satellite tracking list
Your tracking list is empty




NASA's NSSDC Master Catalog

Two Line Element Set (TLE):
1 21161U 91009Y   23274.73613914  .00000013  00000-0  26543-3 0  9999
2 21161  74.0761  36.0337 0132394 232.1108 249.6180 12.19430374450068
Source of the keplerian elements: AFSPC